Kodiak Airport Kodiak US
ICAO: PADQ
IATA:
Category: Medium
Scheduled Services:

Elevation: 78 ft
TransAlt. 18000 ft.

Airport Communications:
ANCHORAGE CNTR:125.1
ATIS:135.5
CTAF:119.8
KENAI RDO:119.8
GND:121.9
TWEB:117.1
OPS:156.8
KENAI RDO:122.2
TWR:119.8
UNICOM:122.8

PADQ Zoom In..

If you have problems with the map follow the link
https://www.worldairports.se/pages/airport.php?
ICAO=PADQ

Runways:

(A) RW 07 length 7550 ft width 150 ft
---- / hdg 74

(B) RW 11 length 5400 ft width 150 ft
---- / hdg 109

(C) RW 18 length 5010 ft width 150 ft
---- / hdg 184

(D) RW 25 length 7550 ft width 150 ft
ILS 110.90 / hdg 254

(E) RW 29 length 5400 ft width 150 ft
---- / hdg 289

(F) RW 36 length 5010 ft width 150 ft
---- / hdg 4

Location; PADQ
Day. 18 / Time. 20.53 Zulu
* Altimeter: 29.55
* Temperature: 04° c. 39.2°f.
* Wind from: 300° Speed 10 kn.
Dewpoint: 00° c.
Visibility: 10 Statute Miles.
Clouds: Clear (automated report).

PADQ 182053Z 30010KT 10SM CLR 04/00 A2955 RMK AO2 SLP006 T00390000 51004


Wind From 300°
Speed 10 kn.

 
 
jpsmedia.com for Web Design worldairports.se 2019   terms of use